Senai International Airport
WMKJ : now visible

Airfield :











YOU CAN JOIN US ON...

 
LOGIN :

Register | Disclaimer

   EN    FR    IT 

 









Legend :    VFR   Marginal VFR   IFR   Intensive IFR   Very Intensive IFR
Visi :
Ceiling :
>= 8 km
>= 3000ft
5 to 8 km
1000 to 3000 ft
1500m to 5 km
500 to 1000 ft
800 to 1500m
200 to 500 ft
< 800m
< 200 ft
Symbols :   Thunderstorms  Fog  Heavy snow  Heavy precipitations  Wind > 20 kt






- Airport Elevation : 135 ft
- IATA code : JHB


WMKJ - Senai International

CURRENT METAR :
  • 010500Z VRB03KT 9999 SCT018 34/26 Q1009

EXPIRED METARs :
  • 010400Z VRB03KT 9999 SCT018 32/25 Q1010
  • 010300Z VRB04KT 9999 SCT018 31/25 Q1011

TAF TAF WMKJ
Valid from the 01 at 06:00 until the 02 at 06:00 UTC


010500Z 0106/0206 05005KT 9999 FEW017CB
BECMG 0111/0112 VRB02KT FEW022
BECMG 0201/0202 02005KT FEW018



MET'MAP, your aeronautical weather chart ! - Copyright ORBIFLY December 2007 - Disclaimer

ORBIFLY MET'MAP TEAM :

Programming & Development : Alexandra Zaïnal
Concept & original design : Baudouin d'Aumeries
Assistance for programming : Marc-Olivier Méhu
Technical & hardware support : Manuel Goepfert

Contact : metmap@orbifly.com




SOURCES & CREDITS :

   NOAA       Earth
Advisory